This is the latest recevied weather packets stored in our database for station/object KF0WJA. If no packets are shown the sender has not sent any weather packets the latest 10 day(s).
| Time | Temp. | Humidity | Pressure | Rain* | Wind** | Luminosity | Snow |
|---|---|---|---|---|---|---|---|
| 1787371544 | 28.33° C | 66% | 1018.7 hPa | 0 mm | - | 0 W/m² | - |
| 1787371240 | 27.78° C | 67% | 1018.6 hPa | 0 mm | - | 0 W/m² | - |
| 1787370939 | 27.22° C | 69% | 1018.7 hPa | 0 mm | - | 0 W/m² | - |
| 1787370636 | 27.22° C | 69% | 1019 hPa | 0 mm | - | 0 W/m² | - |
| 1787370334 | 27.78° C | 68% | 1019 hPa | 0 mm | - | 0 W/m² | - |
| 1787370031 | 27.78° C | 67% | 1018.7 hPa | 0 mm | - | 0 W/m² | - |
| 1787369726 | 27.22° C | 68% | 1018.9 hPa | 0 mm | - | 0 W/m² | - |
| 1787369424 | 27.22° C | 67% | 1019 hPa | 0 mm | - | 0 W/m² | - |
| 1787369120 | 27.78° C | 65% | 1018.5 hPa | 0 mm | - | 0 W/m² | - |
| 1787368814 | 27.78° C | 66% | 1018.4 hPa | 0 mm | - | 0 W/m² | - |
| 1787368509 | 27.78° C | 67% | 1018.6 hPa | 0 mm | - | 0 W/m² | - |
| 1787368204 | 27.22° C | 67% | 1018.7 hPa | 0 mm | - | 0 W/m² | - |
| 1787367900 | 27.78° C | 66% | 1018.6 hPa | 0 mm | - | 0 W/m² | - |
| 1787367595 | 27.78° C | 65% | 1018.6 hPa | 0 mm | - | 0 W/m² | - |
| 1787367295 | 27.78° C | 66% | 1018.5 hPa | 0 mm | - | 0 W/m² | - |
| 1787366994 | 27.78° C | 66% | 1018.2 hPa | 0 mm | - | 0 W/m² | - |
| 1787366694 | 27.78° C | 65% | 1018.1 hPa | 0 mm | - | 0 W/m² | - |
| 1787366389 | 27.22° C | 68% | 1018.3 hPa | 0 mm | - | 0 W/m² | - |
| 1787366084 | 27.78° C | 67% | 1018.4 hPa | 0 mm | - | 0 W/m² | - |
| 1787365781 | 27.78° C | 66% | 1018.5 hPa | 0 mm | - | 0 W/m² | - |
| 1787365480 | 28.33° C | 65% | 1018.5 hPa | 0 mm | - | 0 W/m² | - |
| 1787365176 | 28.33° C | 64% | 1018.6 hPa | 0 mm | - | 0 W/m² | - |
| 1787364872 | 28.33° C | 64% | 1018.5 hPa | 0 mm | - | 0 W/m² | - |
| 1787364567 | 28.33° C | 63% | 1018.4 hPa | 0 mm | - | 0 W/m² | - |
| 1787364263 | 28.89° C | 62% | 1018.3 hPa | 0 mm | - | 0 W/m² | - |
* Rain latest hour (hover to see other rain measurements)
** Current wind speed in m/s (hover to see current wind gust speed)